Weather History for Hope, BC

Change the Weather History Date:

Saturday, April 13, 2013

  Actual Average Record
Temperature  
Mean Temperature 42 °F -  
Max Temperature 49 °F 61 °F 69 °F (2014)
Min Temperature 36 °F 43 °F 33 °F (1998)
Degree Days  
Heating Degree Days 22    
Moisture  
Dew Point 35 °F    
Average Humidity 78    
Maximum Humidity 93    
Minimum Humidity 51    
Precipitation  
Precipitation 0.20 in 0.15 in - ()
Sea Level Pressure  
Sea Level Pressure 29.79 in    
Wind  
Wind Speed 10 mph ()    
Max Wind Speed 17 mph    
Max Gust Speed 29 mph    
Visibility 8.0 miles    
Events Rain    
Averages and records for this station are not official NWS values.
T = Trace of Precipitation, MM = Missing Value Source: Averaged Metar Reports

Daily Weather History Graph

Daily Weather History Graph

Search for Another Location

Airport:

Trip Planner

Search our weather history database for the weather conditions in past years. The results will help you decide how hot, cold, wet, or windy it might be!

Date:

Astronomy

Apr. 13, 2013 Rise Set
Actual Time 6:17 AM PDT 7:56 PM PDT
Civil Twilight 5:44 AM PDT 8:29 PM PDT
Nautical Twilight 5:03 AM PDT 9:10 PM PDT
Astronomical Twilight 4:18 AM PDT 9:56 PM PDT
Moon 7:57 AM PDT (4/13) 11:40 PM PDT (4/13)
Length of Visible Light 14h 45m
Length of Day
13h 38m
Waxing Crescent, 11% of the Moon is Illuminated
Apr 13
Waxing Crescent
Apr 18
First Quarter
Apr 25
Full
May 2
Last Quarter
May 9
New

Hourly Weather History & Observations

Time (PDT) Temp. Windchill Dew Point Humidity Pressure Visibility Wind Dir Wind Speed Gust Speed Precip Events Conditions
12:00 AM 37.4 °F 30.3 °F 35.6 °F 93% 29.61 in 4.0 mi West 10.4 mph - N/A Rain Rain
12:03 AM 37.4 °F 31.4 °F 35.6 °F 93% 29.61 in 4.0 mi WNW 8.1 mph - N/A Rain Light Rain
12:09 AM 37.4 °F 27.8 °F 35.6 °F 93% 29.61 in 6.0 mi West 17.3 mph - N/A Rain Light Rain
1:00 AM 41.0 °F 33.5 °F 35.6 °F 81% 29.64 in 9.0 mi WNW 13.8 mph 26.5 mph N/A Rain Light Rain
1:08 AM 41.0 °F 32.8 °F 35.6 °F 81% 29.66 in 5.0 mi WNW 16.1 mph 27.6 mph N/A Rain Light Rain
1:30 AM 39.2 °F 32.0 °F 35.6 °F 87% 29.67 in 3.0 mi WNW 11.5 mph 21.9 mph N/A Rain Light Rain
1:45 AM 39.2 °F 35.9 °F 35.6 °F 87% 29.68 in 6.0 mi WSW 4.6 mph - N/A Rain Light Rain
1:47 AM 39.2 °F 32.5 °F 33.8 °F 81% 29.68 in 7.0 mi West 10.4 mph - N/A Rain Light Rain
2:00 AM 40 °F - 35 °F 75% 29.69 in - WSW 11.5 mph - -  
2:00 AM 39.2 °F 31.2 °F 33.8 °F 81% 29.68 in 9.0 mi West 13.8 mph 24.2 mph N/A Rain Light Rain
2:01 AM 39.2 °F 32.5 °F 33.8 °F 81% 29.69 in 9.0 mi West 10.4 mph 24.2 mph N/A   Overcast
2:39 AM 41.0 °F 32.8 °F 30.2 °F 65% 29.68 in 9.0 mi West 16.1 mph 28.8 mph N/A Rain Light Rain
2:53 AM 41.0 °F 33.1 °F 30.2 °F 65% 29.67 in 9.0 mi WNW 15.0 mph 26.5 mph N/A   Overcast
3:00 AM 41.0 °F 35.2 °F 30.2 °F 65% 29.68 in 9.0 mi NW 9.2 mph 27.6 mph N/A Rain Light Rain
4:00 AM 37.4 °F 29.3 °F 33.8 °F 87% 29.71 in 8.0 mi West 12.7 mph 24.2 mph N/A Rain Light Rain
4:35 AM 37.4 °F 30.3 °F 33.8 °F 87% 29.74 in 5.0 mi WNW 10.4 mph 19.6 mph N/A Rain Light Rain
4:43 AM 37.4 °F 29.3 °F 33.8 °F 87% 29.75 in 6.0 mi WNW 12.7 mph 21.9 mph N/A Rain Light Rain
5:00 AM 37 °F - 35 °F 88% 29.76 in - WSW 9.2 mph - -  
5:00 AM 37.4 °F 30.3 °F 33.8 °F 87% 29.75 in 6.0 mi WSW 10.4 mph 18.4 mph N/A Rain Light Rain
5:34 AM 35.6 °F 29.9 °F 33.8 °F 93% 29.77 in 9.0 mi WSW 6.9 mph - N/A Rain Light Rain
6:00 AM 37.4 °F 31.4 °F 33.8 °F 87% 29.78 in 9.0 mi SSW 8.1 mph - N/A Rain Light Rain
7:00 AM 37.4 °F 30.3 °F 33.8 °F 87% 29.79 in 9.0 mi SW 10.4 mph - N/A Rain Light Rain
7:07 AM 39.2 °F 32.0 °F 33.8 °F 81% 29.79 in 9.0 mi WSW 11.5 mph - N/A   Overcast
7:09 AM 39.2 °F 31.6 °F 33.8 °F 81% 29.79 in 9.0 mi West 12.7 mph - N/A Rain Light Rain
8:00 AM 39 °F - 35 °F 79% 29.82 in - SW 10.4 mph - -  
8:00 AM 39.2 °F 33.0 °F 33.8 °F 81% 29.82 in 9.0 mi SW 9.2 mph 19.6 mph N/A Rain Light Rain
8:08 AM 39.2 °F 32.0 °F 32.0 °F 75% 29.82 in 9.0 mi WSW 11.5 mph - N/A   Overcast
9:00 AM 41.0 °F 39.0 °F 33.8 °F 76% 29.83 in 9.0 mi SW 3.5 mph - N/A   Overcast
10:00 AM 42.8 °F 39.3 °F 35.6 °F 76% 29.84 in 9.0 mi SW 5.8 mph - N/A   Overcast
11:00 AM 45 °F - 33 °F 51% 29.84 in - West 10.4 mph - -  
11:00 AM 46.4 °F 41.5 °F 32.0 °F 57% 29.83 in 9.0 mi WNW 10.4 mph 19.6 mph N/A   Scattered Clouds
12:00 PM 46.4 °F 41.1 °F 32.0 °F 57% 29.84 in 9.0 mi West 11.5 mph - N/A   Overcast
12:56 PM 44.6 °F 39.7 °F 37.4 °F 76% 29.86 in 9.0 mi WNW 9.2 mph - N/A Rain Light Rain
1:00 PM 44.6 °F 39.7 °F 37.4 °F 76% 29.86 in 9.0 mi WNW 9.2 mph - N/A Rain Light Rain
2:00 PM 46 °F - 39 °F 70% 29.87 in - West 10.4 mph - -  
2:00 PM 46.4 °F 41.5 °F 39.2 °F 76% 29.87 in 9.0 mi WNW 10.4 mph 19.6 mph N/A Rain Light Rain
2:03 PM 46.4 °F 41.5 °F 37.4 °F 71% 29.87 in 9.0 mi WNW 10.4 mph 19.6 mph N/A   Mostly Cloudy
3:00 PM 48.2 °F - 37.4 °F 66% 29.88 in 9.0 mi NW 6.9 mph 18.4 mph N/A   Overcast
4:00 PM 50.0 °F - 35.6 °F 58% 29.88 in 9.0 mi West 16.1 mph - N/A   Partly Cloudy
5:00 PM 50 °F - 38 °F 52% 29.88 in - West 10.4 mph - -  
5:00 PM 50.0 °F - 37.4 °F 62% 29.88 in 9.0 mi West 9.2 mph 19.6 mph N/A   Clear
6:00 PM 46.4 °F 42.4 °F 35.6 °F 66% 29.89 in 9.0 mi WNW 8.1 mph - N/A   Partly Cloudy
7:00 PM 46.4 °F 44.3 °F 37.4 °F 71% 29.90 in 9.0 mi WSW 4.6 mph - N/A   Clear
8:00 PM 41 °F - 36 °F 78% 29.91 in - SSW 3.5 mph - -  
8:00 PM 41.0 °F 37.1 °F 37.4 °F 87% 29.91 in 9.0 mi Variable 5.8 mph - N/A   Clear
9:00 PM 41.0 °F 38.0 °F 35.6 °F 81% 29.94 in 9.0 mi SSW 4.6 mph - N/A   Mostly Cloudy
10:00 PM 39.2 °F - 37.4 °F 93% 29.96 in 9.0 mi Variable 2.3 mph - N/A   Overcast
11:00 PM 39 °F - 37 °F 92% 29.97 in - SSW 3.5 mph - -  
11:00 PM 39.2 °F 35.9 °F 37.4 °F 93% 29.97 in 9.0 mi SW 4.6 mph - N/A   Overcast